TimeEST,TemperatureF,Dew PointF,Humidity,Sea Level PressureIn,VisibilityMPH,Wind Direction,Wind SpeedMPH,Gust SpeedMPH,PrecipitationIn,Events,Conditions,WindDirDegrees,DateUTC
12:54 AM,48.0,39.9,74,30.58,10.0,NE,5.8,-,N/A,,Clear,50,2012-11-18 05:54:00
1:54 AM,46.9,41.0,80,30.59,10.0,NNE,6.9,-,N/A,,Clear,30,2012-11-18 06:54:00
2:54 AM,48.0,41.0,77,30.58,10.0,NNE,5.8,-,N/A,,Clear,20,2012-11-18 07:54:00
3:54 AM,46.9,41.0,80,30.58,9.0,NNE,6.9,-,N/A,,Clear,20,2012-11-18 08:54:00
4:54 AM,46.0,39.9,79,30.60,9.0,NNE,5.8,-,N/A,,Clear,30,2012-11-18 09:54:00
5:54 AM,46.0,39.9,79,30.61,8.0,North,5.8,-,N/A,,Clear,10,2012-11-18 10:54:00
6:54 AM,46.0,39.9,79,30.60,7.0,North,6.9,-,N/A,,Clear,10,2012-11-18 11:54:00
7:54 AM,46.0,39.0,76,30.61,6.0,North,9.2,-,N/A,,Haze,10,2012-11-18 12:54:00
8:54 AM,46.9,39.0,74,30.61,6.0,NNE,8.1,-,N/A,,Haze,20,2012-11-18 13:54:00
9:54 AM,48.0,37.0,66,30.61,8.0,NNE,11.5,-,N/A,,Clear,20,2012-11-18 14:54:00
10:54 AM,50.0,39.0,66,30.61,9.0,NNE,8.1,-,N/A,,Clear,30,2012-11-18 15:54:00
11:54 AM,51.1,39.0,63,30.58,10.0,NE,9.2,-,N/A,,Clear,50,2012-11-18 16:54:00
12:54 PM,53.1,39.0,59,30.56,10.0,NNE,8.1,-,N/A,,Partly Cloudy,30,2012-11-18 17:54:00
1:54 PM,53.1,39.0,59,30.54,10.0,NE,11.5,-,N/A,,Partly Cloudy,40,2012-11-18 18:54:00
2:54 PM,52.0,39.9,63,30.54,10.0,NNE,10.4,-,N/A,,Clear,20,2012-11-18 19:54:00
3:54 PM,52.0,41.0,66,30.54,10.0,NE,9.2,-,N/A,,Overcast,40,2012-11-18 20:54:00
4:54 PM,52.0,42.1,69,30.53,10.0,NNE,5.8,-,N/A,,Overcast,20,2012-11-18 21:54:00
5:54 PM,52.0,41.0,66,30.54,10.0,NNE,8.1,-,N/A,,Overcast,30,2012-11-18 22:54:00
6:54 PM,51.1,39.9,66,30.54,10.0,NNE,9.2,-,N/A,,Overcast,30,2012-11-18 23:54:00
7:54 PM,51.1,41.0,68,30.55,10.0,NNE,8.1,-,N/A,,Overcast,30,2012-11-19 00:54:00
8:54 PM,51.1,39.9,66,30.53,10.0,NE,11.5,19.6,N/A,,Overcast,40,2012-11-19 01:54:00
9:54 PM,50.0,39.9,68,30.53,10.0,NNE,8.1,-,N/A,,Clear,20,2012-11-19 02:54:00
10:54 PM,50.0,39.9,68,30.52,10.0,NNE,10.4,-,N/A,,Clear,30,2012-11-19 03:54:00
11:54 PM,50.0,39.9,68,30.50,10.0,North,8.1,-,N/A,,Mostly Cloudy,10,2012-11-19 04:54:00